Location: Chandolas
(44.4033°N, 4.2533°E)
Time: 21:26:54
(UTC+00:00)

FENGYUN 3A - Pass Details

Date: 15 November 2019
Orbit: 823 x 836 km, 98.4° (Epoch: 10 December)

Event Time Altitude Azimuth Distance (km) Brightness Sun altitude
Rises 06:04:51 0° 6° (N) 3,393 6.7 -6.4°
Reaches altitude 10° 06:07:22 10° 358° (N) 2,453 5.9 -6.0°
Maximum altitude 06:12:18 37° 293° (WNW) 1,272 4.2 -5.1°
Drops below altitude 10° 06:17:12 10° 227° (SW) 2,430 5.9 -4.3°
Sets 06:19:41 0° 220° (SW) 3,358 6.6 -3.9°
